Meteo Giornale » Osservazioni meteo Italia » Monte Terminillo

ore: 20:55 - Osservazioni Meteo Monte Terminillo
Lat. 42° 28' N Lon. 12° 59' E Alt. 1874 metri s.l.m.

sereno Europe/Rome

0 °C

Sereno

Temp. 24 Ore

0 °C

0 °C

Nord/NOvest

24 Km/h

Dew point 0 °C

Umidità 65 %

Visibilità  0 Km

Il sole sorge alle ore 06:15

Il sole tramonta alle ore 20:09

Data e Ora Cielo e Fenomeni T °C DP °C Um. % Pres. hPa Vis. km Vento km/h
Oggi h: 20:55 sereno Sereno 0 0 65 0 0 N/NO 24
Oggi h: 19:55 sereno Sereno 0 0 10 0 0 NO 20.3
Oggi h: 18:55 sereno Sereno 0 0 55 0 0 NO 18.5
Oggi h: 17:55 sereno Sereno 0 0 52 0 0 NO 18.5
Oggi h: 16:55 sereno Sereno 0 0 32 0 0 O/NO 33.3
Oggi h: 15:55 sereno Sereno 0 0 40 0 0 O 29.6
Oggi h: 14:55 sereno Sereno 0 0 37 0 0 O/NO 25.9
Oggi h: 13:55 sereno Sereno 0 0 49 0 0 O 22.2
Oggi h: 12:55 sereno Sereno 0 0 28 0 0 N/NO 11.1
Oggi h: 11:55 sereno Sereno 0 0 70 0 0 N/NO 13
Oggi h: 10:55 sereno Sereno 0 0 37 0 0 N 11.1
Oggi h: 09:55 sereno Sereno 0 0 57 0 0 N 14.8
Oggi h: 08:55 sereno Sereno 0 0 57 0 0 N 18.5
Oggi h: 07:55 sereno Sereno 0 0 47 0 0 N 29.6
Oggi h: 06:55 sereno Sereno 0 0 77 0 0 N 29.6
Oggi h: 05:55 sereno Sereno 0 0 100 0 0 N 29.6
Oggi h: 04:55 sereno Sereno 0 0 94 0 0 N/NO 31.5
Oggi h: 02:55 sereno Sereno 0 0 94 0 0 N/NO 22.2
Oggi h: 01:55 sereno Sereno 0 0 82 0 0 N/NO 27.8
Oggi h: 00:55 sereno Sereno 0 0 73 0 0 N/NO 18.5
Ieri h: 23:55 sereno Sereno 0 0 94 0 0 N/NO 13
Ieri h: 22:55 sereno Sereno 0 0 60 0 0 N 16.7
Ieri h: 21:55 sereno Sereno 0 0 53 0 0 N 14.8